www.pogodaiklimat.ru
ПОГОДА в Ошмянах
Время
(UTC), дата
00 9.10
03 9.10
06 9.10
09 9.10
12 9.10
15 9.10
18 9.10
21 9.10
00 10.10
03 10.10
06 10.10
09 10.10
12 10.10
15 10.10
18 10.10
21 10.10
00 11.10
03 11.10
06 11.10
09 11.10
12 11.10
15 11.10
18 11.10
21 11.10
00 12.10
03 12.10
06 12.10
09 12.10
12 12.10
15 12.10
18 12.10
21 12.10
00 13.10
03 13.10
06 13.10
09 13.10
12 13.10
15 13.10
18 13.10
21 13.10
00 14.10
03 14.10
06 14.10
09 14.10
12 14.10
15 14.10
18 14.10
21 14.10
00 15.10
03 15.10
06 15.10
09 15.10
12 15.10
15 15.10
18 15.10
Ветер
(напр.,м/с)
Видим. Явления Облачность Т
(С)
Тd
(С)
f
(%)
Тe
(С)
Тes
(С)
Комфортность P
(гПа)
Po
(гПа)
Тmin
(С)
Tmax
(С)
R
(мм)
R24
(мм)
S
(см)
Ю 4 9000 м слаб. дождь 10/10 300 м
[Frnb Ns]
+4.4 +4.4 100 -0 -0 по сезону 1004.0 978.3
ЮЗ 4
{10}
2800 м в посл. час дождь 10/10 300 м
[St]
+6.0 +6.0 100 +2 +2 по сезону 1003.0 977.4 +4.2
ЮЗ 5
{10}
9000 м слаб. морось {дождь} 10/10 300 м
[St]
+8.2 +7.8 97 +4 +4 по сезону 1004.0 978.6 +4.2 2
ЮЗ 4
{10}
23 км в посл. час ливневой дождь {морось} 9/9 600 м
[Cb cap]
+10.2 +9.0 92 +7 +7 тепло 1006.0 980.8
ЮЗ 4
{10}
26 км в посл. час ливневой дождь {морось} 9/9 600 м
[Cb cap]
+12.2 +9.9 86 +10 +10 тепло 1007.0 981.9
Ю 2 30 км {ливн. осадки} 6/6 600 м
[Cb cap]
+11.0 +9.1 88 +10 +10 тепло 1008.0 982.8
Ю 2 6000 м дымка {ливн. осадки} 3/0
[Ci fib]
+9.1 +9.1 100 +7 +7 тепло 1009.0 983.6 +12.9 0.6
Ю 3 8000 м дымка 9/9 600 м
[Sc]
+9.2 +9.2 100 +7 +7 тепло 1009.0 983.6
Ю 2 2800 м дымка 9/9 600 м
[Sc]
+9.3 +9.3 100 +7 +7 тепло 1007.0 981.7
ЮВ 3 1900 м слаб. ливневой дождь {туман} 10/10 600 м
[Cb cap]
+8.8 +8.8 100 +6 +6 тепло 1005.0 979.7 +8.8
штиль 0 8000 м слаб. ливневой дождь {туман} 10/10 300 м
[Cb cap]
+8.5 +8.4 99 +7 +7 тепло 1003.0 977.7 +8.3 2
ЮЗ 4 8000 м слаб. ливневой дождь 10/8 300 м
[Cb cap Ac As]
+9.0 +8.4 96 +6 +6 тепло 1003.0 977.7
ЮЗ 3 15 км в посл. час ливневой дождь 10/8 300 м
[Cb cap Ac As]
+9.5 +9.0 97 +7 +7 тепло 1003.0 977.8
ЮЗ 3 8000 м слаб. ливневой дождь 10/8 300 м
[Cb cap Ac As]
+9.1 +9.1 100 +6 +6 тепло 1005.0 979.7
ЮЗ 3 15 км в посл. час ливневой дождь 10/8 600 м
[Cb cap Ac As]
+9.2 +9.1 99 +7 +7 тепло 1007.0 981.6 +9.7 6
ЮЗ 4
{10}
20 км в посл. час ливневой дождь 10/8 600 м
[Cb cap Ac As]
+9.0 +8.5 97 +6 +6 тепло 1008.0 982.6
ЮЗ 4 30 км {ливн. осадки} 10/8 600 м
[Cb cap Ac As]
+8.8 +8.2 96 +6 +6 тепло 1009.0 983.6
ЮЗ 4 23 км 10/8 600 м
[Cb cap Ac As]
+8.6 +7.8 95 +5 +5 тепло 1010.0 984.5 +8.6
ЮЗ 4 22 км {ливн. осадки} 10/8 600 м
[Cb cap Ac As]
+8.5 +7.6 94 +5 +5 тепло 1012.0 986.4 +8.4 0.4
ЮЗ 5 35 км 10/10 300 м
[St]
+8.9 +6.7 86 +5 +5 тепло 1013.0 987.5
ЮЗ 5
{11}
22 км 10/10 600 м
[St]
+8.7 +6.8 88 +5 +5 тепло 1013.0 987.4
Ю 4 27 км 9/6 600 м
[Sc Ac trans]
+9.8 +7.2 84 +7 +7 тепло 1013.0 987.5
Ю 5 9000 м слаб. ливневой дождь 10/10 600 м
[Cb cap]
+9.8 +7.6 86 +7 +7 тепло 1012.0 986.6 +10.4 0.0
ЮЗ 5
{11}
30 км {ливн. осадки} 10/10 600 м
[Cb cap]
+10.4 +7.6 83 +7 +7 тепло 1010.0 984.7
Ю 5
{11}
9000 м слаб. ливневой дождь 10/10 600 м
[Cb cap]
+9.5 +8.9 96 +6 +6 тепло 1010.0 984.6
ЮЗ 5 9000 м слаб. ливневой дождь 10/10 300 м
[Cb cap]
+9.8 +9.2 96 +6 +6 тепло 1008.0 982.7 +9.4
Ю 6-10
{11}
28 км {ливн. осадки} 10/10 600 м
[St]
+10.3 +8.6 89 +7 +7 тепло 1006.0 980.8 +9.4 2
ЮЗ 6-11
{14}
27 км 9/9 600 м
[Sc]
+12.5 +9.3 81 +10 +10 тепло 1006.0 981.0
ЮЗ 5
{15}
6000 м слаб. дождь 10/10 300 м
[Frnb]
+13.5 +10.7 83 +12 +12 тепло 1006.0 981.1
ЮЗ 5
{12}
7000 м слаб. дождь 10/10 300 м
[Frnb Ns]
+12.6 +12.6 100 +10 +10 тепло 1007.0 982.0
ЮЗ 3
{12}
8000 м слаб. дождь 10/10 300 м
[Frnb Ns]
+10.6 +10.6 100 +8 +8 тепло 1009.0 983.7 +13.6 0.5
ЮЗ 3 4000 м дождь 10/10 300 м
[Frnb Ns]
+10.2 +10.2 100 +8 +8 тепло 1010.0 984.7
ЮЗ 2 8000 м слаб. дождь 10/10 300 м
[Frnb Ns]
+10.6 +10.6 100 +9 +9 тепло 1011.0 985.7
ЮЗ 4 10 км {дождь} 10/10 300 м
[St]
+11.1 +10.9 99 +9 +9 тепло 1012.0 986.7 +10.1
З 3 4700 м слаб. дождь 10/10 300 м
[Frnb Ns]
+11.0 +11.0 100 +9 +9 тепло 1013.0 987.7 +10.1 6
ЮЗ 4 35 км {дождь} 10/10 300 м
[St]
+11.8 +10.7 93 +10 +10 тепло 1014.0 988.7
ЮЗ 2 30 км в посл. час ливневой дождь 10/10 300 м
[Cb cap]
+11.5 +11.0 97 +10 +10 тепло 1016.0 990.6
З 1 27 км {ливн. осадки} 10/10 600 м
[Cb cap]
+11.9 +11.0 94 +12 +12 тепло 1016.0 990.7
штиль 0 9000 м дымка {ливн. осадки} 10/10 600 м
[Cb cap]
+11.2 +11.2 100 +10 +10 тепло 1017.0 991.6 +12.1 0.6
штиль 0 1000 м дымка 9/0
[Ac trans]
+10.3 +10.3 100 +9 +9 тепло 1018.0 992.5
штиль 0 300 м туман 6/0
[Ac trans Ci fib]
+9.2 +9.2 100 +8 +8 тепло 1017.0 991.4
Ю 3 13 км в посл. час туман 4/0
[Ac trans]
+11.9 +11.9 100 +10 +10 тепло 1015.0 989.7 +8.5
Ю 4 20 км {туман} 3/0
[Ac trans Ci fib]
+12.3 +11.2 93 +10 +10 тепло 1014.0 988.8 +8.5
Ю 6-10
{12}
35 км 4/0
[Ac trans Ci fib]
+17.4 +12.3 72 +17 +18 тепло 1012.0 987.3
ЮЗ 7-11
{12}
30 км 6/1 600 м
[Cu hum Ac trans Ci fib]
+20.1 +13.3 65 +22 +22 комфорт 1012.0 987.5
ЮЗ 4
{11}
30 км 6/3 600 м
[Sc Ac lent Ci fib]
+18.9 +13.3 70 +20 +20 тепло 1012.0 987.4
ЮЗ 3 30 км 4/3 600 м
[Sc Ac lent]
+15.8 +13.5 86 +15 +15 тепло 1014.0 989.1 +20.5
З 3 10 км 3 балла +12.6 +11.2 91 +11 +11 тепло 1016.0 990.7
ЮЗ 2 17 км 3/0
[Ac lent]
+8.6 +8.5 99 +7 +7 тепло 1018.0 992.3
ЮЗ 1 200 м туман 3 балла +5.8 +5.8 100 +4 +4 по сезону 1019.0 993.0 +5.8
штиль 0 300 м туман ясно +6.0 +6.0 100 +5 +5 тепло 1020.0 994.0 +4.8
В 2 10 км 3 балла +11.8 +9.4 85 +11 +13 тепло 1021.0 995.5
ЮВ 3 10 км 10 баллов +15.1 +9.0 67 +14 +14 тепло 1019.0 993.9
СВ 3 10 км 10 баллов +13.6 +10.0 79 +12 +12 тепло 1018.0 992.8
В 2 10 км 10 баллов +12.4 +9.4 82 +11 +11 тепло 1017.0 991.7 +16.4
Местоположение метеостанции Ошмяны (Гродненская область, Беларусь): широта 54.43 долгота 25.93 высота над уровнем моря 211 м.
В архиве по умолчанию представлена погода в Ошмянах за последнюю неделю. Архивные данные за месяц целиком и за предыдущие месяцы, начиная с января 2011 года, Вы можете получить, выбрав интересующий диапазон дат из раскрывающегося списка и нажав кнопку "Найти!".
*Определитесь, кто Вы:
Внимание! Время в таблицах - всемирное. Для получения местного времени необходимо прибавить поправку, которая равна 3 ч.
Смотрите также архив погоды в соседних городах и на ближайших метеорологических станциях:
Партнеры нашего сайта:      
Пояснения к столбцам:
  • Ветер - указаны скорость ветра в м/с - средняя за 10 мин, порывы в срок и между сроками (в фигурных скобках) и направление, откуда дует ветер: С - северный,
  • СВ - северо-восточный, В - восточный, ЮВ - юго-восточный, Ю - южный, ЮЗ - юго-западный, З - западный, СЗ - северо-западный.
  • Видимость - горизонтальная дальность видимости в метрах или километрах. При видимости от 1 до 10 км при отсутствии осадков обычно наблюдается дымка, при ухудшении видимости до 1 км и менее - туман. В сухую погоду видимость может ухудшаться дымом, пылью или мглою.
  • Явления - указаны атмосферные явления, наблюдавшиеся в срок или в последний час перед сроком; фигурными скобками обозначены явления, наблюдавшиеся между сроками (за 1-3 часа до срока); квадратными скобками обозначены град или гололедные отложения с указанием их диаметра в мм.
  • Облачность - указаны через наклонную черту общая и нижняя облачность в баллах и высота нижней границы облаков в метрах; квадратными скобками обозначены формы облаков: Ci - перистые, Cs - перисто-слоистые, Cc - перисто-кучевые, Ac - высококучевые, As - высокослоистые, Sc - слоисто-кучевые, Ns - слоисто-дождевые, Cu - кучевые, Cb - кучево-дождевые. Подробнее классификацию облаков см. в Атласе облаков (PDF).
  • T - Температура воздуха - температура, измеренная на высоте 2 м над землей.
  • Td - Температура точки росы - температура, при понижении до которой содержащийся в воздухе водяной пар достигнет насыщения.
  • f - Относительная влажность воздуха - влажноcть воздуха, измеренная на высоте 2 м над землей.
  • Te - Эффективная температура - температура, которую ощущает одетый по сезону человек в тени. Характеристика душности погоды. При расчете учитывается влияние влажности воздуха и скорости ветра на теплоощущения человека.
  • Tes - Эффективная температура на солнце - температура, которую ощущает человек, с поправкой на солнечный нагрев. Характеристика знойности погоды. Зависит от высоты солнца над горизонтом, облачности и скорости ветра. Ночью, в пасмурную погоду, а также при ветре 12 м/с и более поправка равна нулю.
  • P - Атмосферное давление - приведенное к уровню моря атмосферное давление.
  • Po - Атмосферное давление - измеренное на уровне метеостанции атмосферное давление.
  • Tmin - Минимальная температура - минимум температуры воздуха на высоте 2 м над землей.
  • Tmax - Максимальная температура - максимум температуры воздуха на высоте 2 м над землей.
  • R - Количество осадков - Количество выпавших осадков за период времени, мм. При наведении курсора мыши на число - период времени, за который выпало указанное количество осадков.
  • R24 - Количество осадков - Количество выпавших осадков за 24 часа, мм.
  • S - Снежный покров - Высота снежного покрова, см. При наведении курсора мыши на число - состояние снежного покрова и степень покрытия местности в баллах.